Location: Starlight Cascade Observatory
(44.3775°N, 76.7633°W)
Time: 04:30:50
(UTC-05:00)

Envisat - Visible Passes

Search period start: 01 December 2020 00:00
Search period end: 11 December 2020 00:00
Orbit: 764 x 766 km, 98.1° (Epoch: 30 November)

Date Brightness Start Highest point End Pass type
(mag) Time Alt. Az. Time Alt. Az. Time Alt. Az.
01 Dec 4.8 05:21:51 10° NNE 05:26:25 33° E 05:30:58 10° SSE visible
01 Dec 5.7 18:18:11 10° SW 18:21:58 21° W 18:25:47 10° NW visible
02 Dec 6.0 04:46:18 10° NE 04:49:16 15° E 04:52:14 10° SE visible
02 Dec 3.0 06:23:43 10° N 06:28:47 68° WNW 06:33:49 10° SSW visible
02 Dec 4.3 17:40:04 10° S 17:44:54 44° W 17:49:46 10° NNW visible
03 Dec 3.7 05:46:57 10° NNE 05:51:58 56° E 05:56:57 10° S visible
03 Dec 3.0 17:02:56 10° SSE 17:08:01 86° ENE 17:13:08 10° NNW visible
03 Dec 6.2 18:45:50 10° WSW 18:47:42 12° W 18:49:35 10° WNW visible
04 Dec 5.2 05:10:42 10° NE 05:14:58 26° E 05:19:11 10° SSE visible
04 Dec 3.4 06:49:21 10° N 06:54:05 40° WNW 06:58:48 10° SW visible
04 Dec 5.3 18:06:16 10° SSW 18:10:29 26° W 18:14:43 10° NW visible
05 Dec 6.2 04:35:48 10° ENE 04:37:43 12° E 04:39:40 10° ESE visible
05 Dec 3.0 06:12:18 10° NNE 06:17:24 85° WNW 06:22:29 10° SSW visible
05 Dec 3.8 17:28:29 10° S 17:33:28 56° W 17:38:28 10° NNW visible
06 Dec 4.2 05:35:39 10° NNE 05:40:32 45° E 05:45:23 10° S visible
06 Dec 6.0 18:33:14 10° SW 18:36:10 15° W 18:39:06 10° NW visible
07 Dec 5.5 04:59:38 10° NE 05:03:28 21° E 05:07:16 10° SE visible
07 Dec 3.2 06:37:50 10° N 06:42:45 50° WNW 06:47:38 10° SW visible
07 Dec 4.9 17:54:28 10° SSW 17:59:00 32° W 18:03:34 10° NNW visible
08 Dec 3.2 06:00:55 10° NNE 06:06:01 77° ESE 06:11:06 10° S visible
08 Dec 3.4 17:16:59 10° S 17:22:02 71° WSW 17:27:08 10° NNW visible
09 Dec 4.6 05:24:25 10° NNE 05:29:05 35° E 05:33:43 10° SSE visible
09 Dec 5.8 18:21:03 10° SW 18:24:38 19° W 18:28:15 10° NW visible
10 Dec 5.8 04:48:42 10° NE 04:51:57 17° E 04:55:10 10° SE visible
10 Dec 3.0 06:26:22 10° N 06:31:25 63° WNW 06:36:24 10° SSW visible
10 Dec 4.4 17:42:46 10° SSW 17:47:32 41° W 17:52:21 10° NNW visible
